Wind_Speed
70 69 66 64 64 66 67 66 64 63 60 57 55 51 49 48 47 44 42 40 38 36 35 34 33 33 33 34 34 35 37 38 39 41 44 45 47 48 50 50 50 49 50 50 50 50 49 49 49 50 50 48 47 47 48 48 49 51 53 55 58 59 60 58 56 55 56 55 54 53 53 52 52 53
76 74 72 70 67 67 69 69 69 67 64 62 59 56 54 51 49 48 45 44 41 38 37 37 35 35 34 34 34 35 35 36 37 38 40 41 43 44 45 45 45 45 46 46 46 45 46 47 47 47 46 45 45 47 49 49 50 52 55 57 59 59 59 57 55 55 56 55 54 53 52 52 53 54
82 80 78 74 71 68 68 70 71 70 67 65 63 61 59 55 51 50 48 48 46 43 42 43 41 40 39 36 36 36 36 36 36 37 38 38 40 40 40 40 41 42 43 43 43 43 44 45 44 44 44 45 46 49 50 51 52 54 57 58 59 58 58 56 55 55 55 54 54 53 53 53 54 55
85 84 81 78 75 72 70 70 72 71 68 65 65 65 64 59 55 53 51 51 50 49 49 48 47 47 44 41 40 39 37 36 37 37 37 37 37 37 38 39 39 40 41 41 41 42 43 43 43 43 45 47 48 51 52 53 54 55 57 57 57 57 57 56 55 56 55 55 55 55 55 56 57 57
88 86 84 82 80 77 74 72 73 74 71 67 67 67 66 63 61 58 56 55 55 55 54 52 52 51 48 45 44 42 40 38 38 39 38 37 37 38 39 39 39 39 40 40 41 42 43 43 43 45 47 49 51 52 53 54 54 54 55 55 55 56 56 55 56 56 55 55 56 57 58 58 58 59
91 90 88 86 84 83 80 76 74 75 73 71 71 69 67 66 66 64 62 61 60 59 58 58 57 54 51 49 48 46 43 40 40 41 40 39 39 39 39 39 39 39 40 41 42 43 43 43 45 47 49 50 51 52 53 53 53 53 54 55 54 55 55 56 56 56 56 57 57 59 59 60 60 60
94 93 91 89 88 87 84 80 78 76 76 76 75 72 70 69 69 69 67 66 65 63 63 63 62 58 55 54 51 49 47 44 43 44 43 43 43 42 41 40 40 40 41 42 42 42 43 44 46 48 50 50 50 52 52 52 52 53 54 53 53 54 56 56 56 56 57 58 59 60 61 61 61 63
96 95 94 93 92 91 88 85 82 80 79 78 77 75 73 72 72 72 71 70 69 66 66 67 65 62 60 57 54 52 50 49 47 46 46 46 45 44 43 42 42 42 42 42 42 43 44 46 47 49 49 49 50 51 51 51 52 53 53 53 53 54 56 56 56 57 58 59 60 61 62 63 64 65
98 97 97 96 96 95 92 89 86 84 83 82 79 77 76 74 73 74 73 72 71 69 69 69 67 65 63 60 57 55 53 52 51 50 49 48 47 46 45 45 45 44 43 43 44 45 46 47 48 49 49 49 50 51 51 51 52 53 53 53 53 55 56 57 58 59 59 60 61 62 63 64 66 67
98 98 99 98 98 98 95 92 90 89 87 85 82 81 81 77 75 75 75 74 73 70 69 70 69 67 64 62 60 58 56 54 54 53 52 51 50 49 48 47 46 45 44 45 46 46 46 47 49 49 49 49 50 51 51 52 53 53 53 54 55 57 58 59 59 60 60 60 61 63 65 66 68 69
99 99 99 100 100 99 97 96 95 93 92 90 86 85 85 82 80 78 77 77 75 70 69 71 70 67 66 64 62 60 58 57 56 56 55 54 54 53 51 48 47 47 48 48 48 47 47 49 50 50 50 50 51 51 52 54 54 53 54 56 57 58 59 59 60 60 59 60 62 64 66 67 68 68
100 100 100 100 100 100 99 99 98 97 96 94 91 89 89 87 84 82 80 79 76 72 71 72 70 68 67 66 64 62 60 59 59 59 58 56 55 54 52 50 49 51 51 51 49 49 49 50 51 51 51 53 53 54 55 56 54 54 57 59 59 60 60 60 60 59 59 61 63 65 66 67 67 67
100 101 101 101 101 100 100 100 100 99 99 98 96 93 92 91 87 83 82 82 79 75 73 72 71 69 68 68 67 65 63 63 62 61 59 57 56 55 54 53 53 54 53 52 52 51 51 52 53 53 53 55 56 57 58 57 55 56 59 60 61 60 60 60 59 59 60 62 63 64 66 67 67 67
100 100 101 101 101 101 101 101 101 101 101 100 99 97 96 94 90 86 84 84 81 77 74 72 71 70 70 70 69 68 67 66 63 61 59 58 58 58 57 57 57 56 56 55 54 54 54 55 55 54 55 57 58 59 58 57 56 58 60 61 61 61 60 59 59 60 61 62 63 65 66 67 67 67
100 100 101 101 102 102 101 101 101 102 102 101 101 100 99 97 94 90 88 86 83 79 76 75 73 71 71 71 70 70 69 67 65 63 61 61 61 61 60 60 59 60 59 58 56 57 59 58 56 55 57 59 60 59 59 57 57 59 60 61 61 61 60 60 61 61 62 63 64 65 66 67 67 68
101 101 101 101 102 102 101 101 101 102 101 101 102 102 101 99 96 93 91 89 85 81 79 78 76 74 73 72 72 71 70 69 68 66 65 65 64 64 63 62 62 62 61 59 59 61 62 60 57 57 60 61 61 61 60 58 59 60 61 62 61 61 60 61 63 63 62 63 64 66 67 68 68 69
103 102 101 102 102 102 102 102 102 102 101 101 102 102 102 100 97 95 93 92 88 85 82 80 78 76 75 74 73 73 72 70 70 69 68 68 67 65 64 64 65 64 62 62 63 63 63 61 59 61 64 63 62 62 61 59 59 61 62 62 62 61 62 63 64 63 62 64 65 67 68 69 70 71
104 104 103 102 102 102 103 103 102 102 101 101 101 102 103 101 99 97 96 94 92 89 85 82 80 78 77 75 75 74 72 71 71 71 70 69 67 65 66 67 67 66 63 63 64 64 64 63 63 64 65 63 62 63 61 60 61 62 63 62 62 62 64 65 65 63 63 65 67 68 70 70 71 72
105 105 105 104 103 102 103 104 103 102 101 101 101 102 102 101 100 99 98 96 94 91 86 82 80 79 77 76 74 72 71 72 73 71 69 69 67 66 68 69 68 66 64 64 65 64 64 65 64 64 64 63 63 63 62 61 62 63 63 63 62 64 66 67 65 65 65 67 68 70 71 72 72 73
104 104 104 104 103 102 102 103 103 103 102 101 101 102 101 100 99 99 98 96 95 91 86 82 80 79 77 76 74 71 71 73 73 69 68 70 69 68 69 70 69 67 67 67 66 64 64 65 64 64 63 63 64 64 63 63 63 64 64 63 64 66 68 67 66 66 67 68 69 70 72 73 74 74
100 101 102 103 103 102 102 102 103 104 103 102 101 101 100 99 98 98 98 96 95 91 86 82 80 79 77 75 72 71 71 72 70 67 68 70 71 70 69 69 70 70 69 69 67 64 63 64 64 63 64 65 65 65 64 64 64 64 64 65 67 68 68 68 68 68 69 70 71 72 73 74 75 75
95 97 98 99 100 101 101 101 102 103 104 103 101 100 98 97 97 97 97 95 94 90 85 82 81 78 75 73 72 71 71 70 67 65 66 69 71 71 70 70 70 71 70 69 66 63 62 64 64 64 65 66 66 65 65 65 66 66 66 67 68 69 69 69 69 69 70 71 72 73 74 75 77 78
90 92 94 95 97 98 99 100 100 101 102 103 101 99 97 96 96 96 95 94 92 89 85 83 81 77 73 73 73 72 71 69 65 64 66 69 71 71 71 71 71 70 69 68 64 62 63 65 65 65 65 66 67 66 66 67 68 68 68 69 70 70 70 70 70 71 72 73 73 75 76 77 78 80
85 87 89 91 93 94 96 98 99 99 99 100 100 99 97 95 95 94 93 93 92 89 86 84 82 78 75 76 76 74 72 70 68 68 68 69 70 71 72 72 70 69 69 67 64 63 64 65 65 66 66 67 68 68 68 68 69 69 69 70 71 71 71 70 71 73 74 74 75 77 78 79 80 81
80 82 84 86 88 91 93 95 96 96 96 97 98 98 97 95 94 93 93 92 91 89 87 85 82 80 79 80 79 77 74 73 71 70 69 69 70 71 71 71 70 69 68 65 63 64 65 66 66 66 67 68 68 69 69 70 71 71 71 72 72 72 72 71 73 75 75 76 77 79 80 81 83 84
76 78 80 82 85 87 89 91 93 93 94 95 95 96 97 96 95 93 92 91 90 89 87 85 83 83 84 84 81 78 77 75 73 70 69 69 69 70 70 69 69 69 67 65 64 65 66 67 67 67 68 68 69 70 70 71 72 73 72 73 73 73 72 73 74 76 76 77 79 81 82 83 85 86
74 77 79 81 82 83 85 87 88 90 91 91 91 93 95 96 95 92 91 90 90 89 86 84 84 84 85 83 79 77 76 75 73 70 68 69 70 70 69 70 70 69 66 65 66 67 67 68 68 68 69 69 70 71 71 71 73 73 73 73 73 73 73 74 76 77 77 79 81 82 84 85 86 88
73 75 77 79 79 79 81 83 84 86 88 88 88 90 93 95 94 91 90 89 88 87 85 84 84 84 82 80 77 76 76 74 72 70 69 70 71 71 71 73 72 69 66 67 68 68 69 69 70 70 70 71 71 72 71 72 72 73 73 73 73 74 74 75 77 78 79 81 83 84 85 86 87 89
72 74 76 77 76 75 76 78 80 81 84 85 86 87 90 92 92 90 89 88 87 86 85 84 83 81 80 78 77 77 76 72 71 70 70 71 72 72 74 75 72 68 68 69 70 70 71 71 71 71 72 72 72 72 71 72 72 72 73 73 73 74 75 76 78 79 81 83 85 86 86 87 89 91
72 74 74 74 73 71 72 74 76 78 80 82 83 84 87 89 90 90 89 87 86 84 84 83 81 80 80 79 79 78 74 70 69 69 69 69 70 72 74 72 69 68 69 70 71 71 72 72 72 72 72 72 72 72 72 72 72 72 73 74 74 74 76 77 79 81 83 86 86 86 87 88 91 94
70 70 69 70 70 69 69 71 73 74 76 78 80 81 83 86 88 89 88 86 85 83 82 81 80 81 82 81 79 77 75 72 71 70 69 69 70 71 70 67 66 68 70 71 71 72 72 72 72 72 72 72 72 72 73 73 73 73 74 75 75 76 77 79 81 83 86 87 87 87 88 90 93 96
66 65 65 67 67 66 66 68 70 70 71 73 76 78 80 83 85 86 86 85 84 82 82 81 81 82 83 81 78 77 76 75 73 71 71 71 70 69 68 67 68 69 71 71 72 72 72 72 72 72 72 72 71 73 73 74 74 75 75 76 76 77 79 81 83 85 87 87 88 89 90 92 95 97
61 60 61 64 64 63 63 65 65 66 68 70 73 75 78 80 83 85 85 85 83 82 82 82 82 83 83 81 78 77 75 74 72 72 72 72 71 70 70 70 71 71 72 72 72 72 72 72 72 72 71 71 72 73 74 74 75 75 76 76 77 79 80 82 85 86 87 88 90 91 92 94 97 99
56 57 59 60 60 59 60 61 62 63 66 69 71 72 75 78 81 84 84 84 84 83 82 82 83 83 82 79 77 75 73 73 73 73 73 73 72 71 71 71 72 72 72 72 73 72 72 72 72 71 71 71 72 74 74 75 76 76 77 78 79 80 81 84 85 86 87 89 91 92 94 96 98 100
54 55 56 56 55 55 56 58 60 62 64 66 68 70 72 75 78 81 82 83 83 82 82 83 83 82 79 76 73 71 71 71 72 72 71 69 69 69 71 72 72 71 72 72 72 71 71 71 71 71 71 72 73 74 75 76 77 77 79 80 81 81 83 85 86 87 88 89 91 92 95 97 99 102
53 53 53 52 52 52 54 56 58 60 62 64 66 68 71 74 76 79 81 82 82 83 83 83 81 78 74 71 69 69 69 68 67 66 66 65 66 69 71 71 71 71 70 70 70 71 72 72 72 71 72 73 74 75 76 77 78 78 79 81 82 83 84 85 86 88 89 90 91 93 96 98 101 103
52 52 51 50 50 51 52 53 55 56 59 61 63 66 69 73 76 78 80 81 82 83 82 80 76 73 69 67 67 67 68 66 64 64 64 65 68 70 70 69 69 69 68 68 69 71 72 72 72 72 72 73 74 75 76 77 78 78 80 81 82 83 84 86 87 89 90 91 93 95 97 100 102 105
52 52 51 50 49 49 50 51 53 54 56 58 60 64 68 72 75 78 79 80 80 79 76 72 69 67 65 65 66 67 66 64 63 64 66 67 68 68 67 67 68 68 67 67 69 71 72 72 72 72 72 73 73 74 75 76 77 79 80 81 82 84 85 87 88 89 91 93 94 96 98 101 104 106
51 51 50 49 49 49 49 50 52 53 55 57 59 62 66 70 73 75 75 74 73 71 68 65 63 63 64 66 68 67 65 63 64 65 66 67 67 65 65 66 67 66 66 67 69 71 72 72 72 72 73 73 73 73 74 76 77 79 81 82 84 85 87 88 89 91 93 94 96 98 101 103 106 108
50 49 49 48 48 48 49 50 52 55 57 58 60 62 64 66 68 68 67 66 64 61 60 60 62 65 67 68 68 67 66 65 66 67 66 66 66 66 66 67 67 66 66 68 70 72 72 72 73 73 73 73 73 74 75 76 78 81 82 84 86 87 89 90 91 92 94 96 98 100 103 105 107 110
49 48 47 47 47 49 50 51 53 55 57 59 60 61 61 61 61 61 60 59 58 58 60 63 66 68 68 68 68 67 68 68 68 67 66 66 66 68 68 68 66 65 66 69 71 73 73 73 74 74 73 73 74 75 77 78 80 82 84 86 88 89 90 92 93 94 95 97 99 101 104 106 108 110
48 47 46 47 49 50 51 53 54 55 57 60 60 58 57 57 58 58 58 58 60 62 65 67 68 68 68 68 68 69 70 69 67 66 66 66 67 68 68 67 64 64 67 70 72 74 74 74 74 74 74 75 75 77 79 81 82 84 85 87 89 90 92 93 95 96 97 98 100 102 105 107 109 110
48 47 47 48 51 52 53 55 57 58 61 62 61 59 57 58 59 59 60 62 64 65 66 67 67 67 68 69 70 71 71 69 65 64 66 67 68 67 67 65 64 65 68 72 74 76 76 76 76 76 76 76 78 80 82 83 85 86 88 89 90 91 92 94 96 97 98 100 102 104 105 107 109 111
48 49 51 54 55 56 57 59 61 63 64 64 64 62 62 62 62 62 63 65 66 67 67 68 68 69 70 71 71 72 71 69 66 66 67 68 69 68 67 66 67 68 71 74 77 78 79 78 78 78 78 79 81 83 85 86 88 89 90 91 91 92 93 95 96 98 99 101 103 105 107 108 110 113
47 50 54 58 62 64 64 65 65 66 66 66 66 65 64 64 64 64 65 67 69 70 71 71 71 71 71 72 72 72 71 68 67 67 68 68 69 69 68 69 70 73 75 77 79 79 79 79 79 80 81 82 84 86 87 89 90 91 92 92 93 94 95 96 97 98 100 102 104 106 108 110 113 115
Wind_Direction
231 234 235 236 237 238 240 243 244 245 244 243 243 245 245 247 249 250 250 251 251 251 253 255 258 263 265 267 269 272 273 274 274 273 272 271 270 268 268 269 271 273 275 277 278 281 285 289 291 293 294 295 297 298 299 302 303 303 303 303 305 307 308 309 309 309 309 309 309 310 310 311 311 312
228 230 232 234 235 236 239 241 243 244 245 245 244 244 244 244 246 248 249 250 249 247 250 253 257 260 263 266 270 272 275 276 275 274 274 272 271 270 270 271 271 272 274 277 280 284 287 288 290 292 293 294 296 298 300 302 302 301 301 303 305 307 307 308 309 309 308 308 309 311 311 311 311 312
230 232 233 233 233 235 237 239 242 242 243 245 244 244 243 243 244 246 248 250 250 248 249 252 255 258 260 265 269 272 276 277 276 275 274 273 272 272 271 270 271 273 276 280 283 285 285 286 288 290 291 293 296 298 300 300 299 299 301 303 305 306 307 308 309 308 308 308 310 311 311 311 311 312
235 235 237 236 235 236 237 238 241 242 242 243 244 244 244 242 242 244 246 249 250 250 250 252 255 257 259 262 266 271 275 276 277 276 275 274 274 274 272 271 273 276 279 281 282 283 283 285 287 289 290 292 295 298 298 298 298 299 301 303 305 305 306 308 308 307 307 309 310 311 312 312 312 313
237 237 238 238 237 237 237 238 240 242 242 242 242 243 244 244 242 242 244 247 249 250 252 253 254 256 259 261 264 267 272 275 276 275 276 276 275 274 273 274 276 278 279 280 281 282 283 286 287 289 290 293 295 296 297 297 299 301 302 304 305 305 306 308 307 306 307 309 310 312 313 313 313 313
237 238 239 239 239 239 238 238 239 241 242 242 242 242 244 244 244 244 244 246 247 250 252 253 254 256 259 261 262 264 268 272 273 274 275 275 274 274 275 275 275 277 279 280 281 283 285 286 288 290 292 294 295 296 297 299 300 301 302 304 305 306 308 308 306 306 308 309 311 312 314 314 314 313
236 237 238 239 239 239 239 238 238 240 241 242 243 243 244 245 246 246 246 246 248 250 252 254 255 257 259 260 262 264 266 268 270 272 273 274 274 274 275 275 275 276 279 281 282 284 285 286 289 292 294 294 294 296 298 300 300 301 303 305 306 308 308 307 307 307 309 310 311 313 314 314 314 313
235 235 236 237 238 239 239 238 238 238 240 241 243 244 245 245 246 248 248 248 248 250 252 254 256 258 259 261 262 263 264 266 269 271 272 273 274 273 274 274 274 275 279 281 282 283 284 287 290 292 294 294 295 297 299 300 300 301 303 305 307 308 308 309 310 310 311 311 312 313 314 314 314 314
234 234 235 235 237 238 238 238 238 238 239 240 241 243 245 245 246 248 249 249 250 250 251 254 256 258 259 261 261 262 264 265 268 269 270 271 272 272 273 273 273 275 279 280 280 281 284 288 290 291 293 294 296 298 299 299 299 301 304 306 307 308 309 311 312 312 312 312 312 313 314 315 315 315
234 234 234 234 235 236 237 237 237 237 238 239 239 242 243 243 244 246 247 249 249 249 251 254 255 257 259 260 260 261 263 265 266 268 268 269 269 270 272 275 275 275 276 277 279 282 285 287 288 291 293 295 296 298 299 298 300 303 305 307 307 308 310 312 313 312 312 312 313 314 314 315 315 315
235 234 234 233 234 235 236 236 236 237 237 238 238 240 242 243 243 244 245 247 248 249 251 253 255 256 258 259 260 260 262 263 264 266 266 268 269 270 273 276 275 273 274 277 279 282 284 286 288 291 294 295 297 297 296 297 301 304 306 307 307 308 310 311 312 312 312 312 313 314 315 316 316 315
235 235 234 234 233 233 234 235 236 236 237 238 238 239 241 243 243 243 244 246 247 248 249 252 254 255 257 258 259 259 260 261 262 264 267 269 270 271 273 274 274 273 274 277 279 282 283 285 287 291 294 295 296 295 295 297 301 303 305 306 306 307 309 311 311 312 312 312 313 314 315 316 316 315
235 235 235 234 234 233 233 234 234 235 236 237 237 238 239 241 242 243 244 245 246 247 248 250 252 254 255 256 257 258 259 260 262 265 267 269 269 269 270 272 273 274 275 276 278 281 282 284 287 291 294 294 294 293 295 298 301 302 303 305 305 306 308 310 310 311 311 312 313 315 316 316 315 314
236 235 235 235 234 234 233 233 233 234 235 236 237 237 238 240 241 242 243 244 245 246 247 248 250 251 253 254 255 256 258 260 263 264 265 266 267 268 269 271 273 274 275 276 278 279 281 284 287 290 292 292 292 293 296 299 300 301 302 303 304 305 307 308 309 310 311 312 314 315 315 315 315 314
237 236 235 235 235 234 234 233 233 234 234 235 236 237 238 238 239 241 242 244 245 245 246 247 248 249 251 252 253 256 258 260 261 262 263 265 266 267 269 271 273 274 275 277 277 277 281 285 287 289 291 291 292 294 297 298 299 300 301 302 302 304 305 307 308 309 310 313 314 315 315 315 314 314
237 237 236 235 235 235 234 233 233 233 233 234 235 236 237 238 238 240 242 243 244 244 245 246 246 247 249 250 252 255 258 259 260 261 263 264 266 268 271 272 273 274 275 276 275 277 281 284 286 288 289 290 293 295 297 298 298 299 300 301 301 302 304 306 307 308 311 313 314 314 314 314 314 314
237 237 236 236 235 235 234 234 233 233 233 233 234 235 236 237 237 238 240 241 242 242 242 244 245 246 248 249 251 254 257 258 259 260 262 263 266 270 271 272 273 274 275 275 275 277 281 283 284 286 288 291 294 295 296 297 297 298 299 300 300 302 304 306 307 308 311 313 314 313 313 313 313 314
238 237 237 236 235 234 234 234 233 233 233 233 233 234 235 236 237 237 238 239 240 241 241 243 244 245 247 249 251 253 256 257 258 259 260 263 266 269 271 272 273 274 275 274 275 278 280 282 284 286 288 291 293 294 296 297 296 297 298 298 299 301 304 306 306 308 311 312 312 312 312 313 313 314
238 237 237 236 236 235 234 234 234 233 232 232 233 233 234 235 236 237 238 239 240 241 241 242 244 245 247 248 250 252 254 255 256 258 260 263 266 267 269 271 273 274 274 274 275 278 280 281 283 285 288 291 293 294 295 296 296 297 297 297 299 301 304 305 306 308 310 310 311 311 312 312 313 315
238 237 237 236 236 235 234 233 233 233 232 231 232 233 234 234 235 236 238 239 240 241 241 241 243 244 246 247 249 250 251 253 255 257 260 263 265 266 268 270 272 272 272 273 275 278 280 281 283 285 288 291 292 293 294 296 296 296 296 297 298 301 303 305 305 307 308 309 310 310 310 311 313 316
237 237 237 236 236 235 234 233 233 232 232 231 231 232 233 234 234 235 237 238 239 240 240 240 242 243 245 246 248 248 250 252 255 258 260 262 264 266 267 269 270 272 273 274 277 279 280 281 283 286 288 291 292 292 294 296 296 296 296 296 298 300 303 304 305 306 307 308 309 309 309 311 313 315
236 236 236 236 235 235 234 233 232 232 232 231 231 231 232 233 233 234 236 237 238 239 239 239 240 241 242 244 245 246 247 250 254 257 259 262 264 266 267 268 270 271 273 275 278 280 280 281 284 287 289 290 291 292 293 295 295 295 295 296 298 300 302 303 304 305 306 307 308 308 308 310 312 313
236 236 236 235 235 234 233 232 232 231 231 231 230 230 230 231 233 234 235 236 237 237 237 237 238 238 239 241 242 243 245 248 251 254 257 260 263 266 267 268 269 271 273 275 278 279 280 282 285 287 288 289 289 291 293 294 294 294 294 296 298 300 301 302 303 304 305 306 306 306 307 308 310 312
236 236 235 235 234 234 233 232 232 231 230 230 230 229 229 230 231 232 233 234 235 236 235 235 236 236 236 238 239 241 243 246 249 252 256 259 263 265 266 267 269 270 273 276 278 279 280 282 284 286 287 288 289 291 292 293 293 293 294 295 297 299 300 301 302 303 305 305 305 305 306 307 309 311
236 236 235 235 234 233 233 232 231 230 230 229 229 229 228 228 229 230 231 232 233 234 235 235 235 235 235 237 239 241 243 246 249 252 256 259 261 263 264 267 269 271 273 276 278 279 280 282 284 285 286 287 288 290 291 292 292 292 293 295 297 298 299 300 301 303 304 305 305 305 305 307 309 310
236 236 235 235 234 233 232 231 230 229 229 228 228 228 227 227 228 229 230 231 232 233 233 234 235 235 236 238 240 242 244 246 249 252 254 257 258 260 263 265 268 270 273 276 277 278 280 282 283 284 285 286 287 289 290 290 290 291 293 295 296 297 298 300 302 304 304 304 304 304 305 306 308 310
234 234 234 234 233 233 233 232 230 229 228 228 227 227 227 226 226 227 229 230 231 232 233 233 234 236 237 239 241 243 245 247 249 251 253 255 256 259 262 264 266 269 272 275 276 277 279 280 281 283 284 285 286 288 289 289 290 291 293 295 296 296 298 301 303 304 304 303 303 304 305 306 308 310
232 232 233 233 233 232 232 232 230 229 228 227 227 227 226 225 225 226 227 229 230 231 232 232 234 236 238 240 242 243 244 246 249 250 251 253 256 259 261 263 265 268 271 272 274 276 277 278 279 281 283 285 285 286 287 288 289 291 293 294 295 296 298 301 302 303 303 302 303 304 305 306 308 310
230 230 231 232 232 230 231 231 230 228 227 226 226 226 225 224 223 224 225 227 228 229 231 232 233 235 238 239 241 242 244 246 248 250 251 254 256 259 260 262 264 267 269 271 273 275 276 277 279 281 283 284 284 285 286 287 289 291 292 293 294 296 298 300 301 302 302 302 303 304 305 306 308 309
229 229 229 230 230 229 228 229 229 227 226 225 224 225 225 223 222 222 223 225 226 228 230 232 233 234 236 237 239 241 243 244 246 248 251 253 256 257 259 262 265 266 268 270 272 273 274 276 279 281 282 282 283 284 285 287 288 290 291 292 294 296 298 300 300 301 301 302 303 304 304 306 307 309
228 228 228 229 229 227 226 226 227 226 225 224 223 223 223 222 220 220 221 222 224 226 228 230 232 234 235 237 239 241 242 242 244 246 249 252 254 255 258 262 264 265 267 269 270 271 273 276 279 280 281 281 282 283 285 287 288 290 291 292 294 296 298 299 300 301 301 302 303 304 305 306 308 310
227 226 226 227 227 226 224 224 224 223 222 222 221 221 220 219 218 218 219 221 222 224 226 229 231 233 235 237 238 240 241 241 243 246 248 250 252 254 257 261 263 264 266 268 269 270 273 276 278 279 279 280 282 284 285 287 289 290 292 293 295 297 298 299 300 301 302 302 303 304 306 308 309 311
225 223 223 224 225 224 222 222 222 220 219 218 218 218 218 216 215 215 217 219 221 223 225 228 230 233 235 236 237 239 240 241 243 245 247 248 250 254 258 261 262 263 264 266 268 270 274 276 277 277 278 280 282 284 286 288 289 291 292 293 295 297 298 300 301 302 302 303 304 306 308 309 310 312
222 220 220 221 222 221 220 219 218 217 215 215 214 215 215 214 213 214 215 217 219 221 224 227 230 233 235 237 238 240 241 242 243 245 246 249 252 255 257 258 259 261 263 266 268 272 274 275 275 276 278 280 282 284 286 288 289 291 292 294 295 297 299 300 301 302 303 304 306 307 309 309 310 312
219 217 217 218 218 218 217 216 215 214 212 211 211 212 212 212 212 213 214 216 218 221 223 226 229 232 235 237 239 240 241 242 244 246 248 250 252 253 254 255 258 261 264 267 270 272 273 273 274 276 279 281 283 285 286 288 290 291 293 294 296 298 300 301 302 302 304 305 306 308 308 309 310 311
215 214 214 214 214 214 214 213 212 211 210 209 208 209 209 209 210 212 213 215 217 219 222 225 228 232 234 236 238 239 240 241 244 246 248 248 249 250 252 256 260 262 265 268 270 271 272 273 275 277 279 281 283 285 287 289 290 292 294 296 298 299 301 302 303 304 305 306 307 307 308 309 310 311
209 209 210 211 211 211 211 210 209 208 207 206 206 207 207 207 209 210 212 214 216 219 222 225 228 231 233 234 236 237 238 240 243 245 246 246 247 250 255 258 261 264 267 269 271 271 272 273 275 278 280 282 284 286 288 289 291 292 294 297 299 300 302 303 303 304 305 306 306 307 308 309 310 311
203 203 205 207 208 208 208 206 205 204 203 204 204 205 206 206 208 209 211 214 216 220 222 225 227 230 231 233 235 236 238 241 243 244 244 246 249 253 257 260 263 265 268 270 271 272 272 274 276 279 281 283 284 286 288 289 291 293 295 298 299 301 302 302 303 304 305 306 306 307 308 309 310 312
199 200 203 204 204 204 202 201 200 199 199 200 201 203 205 207 208 209 211 213 216 219 221 223 225 227 229 231 233 235 238 240 241 242 244 247 252 256 259 260 263 266 268 270 270 271 273 275 277 280 281 283 284 285 287 289 292 294 296 298 299 300 301 302 303 304 305 306 307 308 309 310 311 312
196 198 199 201 201 199 196 196 196 196 196 196 198 200 203 206 208 209 210 212 214 216 218 220 222 225 227 230 233 235 238 239 240 242 245 249 253 256 258 260 263 266 268 269 270 271 273 275 278 280 281 282 283 285 287 289 292 294 296 297 299 300 301 302 303 305 306 307 308 309 310 311 312 313
193 195 196 196 196 193 191 191 193 193 194 194 194 196 200 202 204 206 206 207 208 211 213 217 221 224 227 231 233 235 238 239 241 243 247 250 254 256 258 260 263 266 267 268 269 271 273 276 278 280 281 282 284 286 288 290 292 294 295 297 298 299 301 302 304 305 306 307 308 309 310 311 313 314
189 191 192 192 190 188 187 188 189 189 191 191 190 191 196 199 201 202 203 204 206 210 214 219 222 226 229 231 233 236 238 240 242 245 248 251 254 256 257 260 263 265 266 267 269 271 273 276 278 280 281 283 285 287 288 290 292 293 295 296 297 299 301 303 304 305 306 307 308 309 311 312 313 315
186 188 188 187 185 182 183 185 185 186 187 188 187 188 193 198 200 202 203 205 209 213 217 221 225 227 230 232 234 236 238 240 243 246 249 251 253 255 257 260 263 265 266 268 269 271 274 277 278 280 282 284 285 287 289 290 292 293 294 296 297 299 301 303 304 305 306 307 308 309 311 313 314 315
186 185 184 181 179 178 179 182 184 184 185 187 187 189 193 197 200 202 205 208 211 215 219 222 225 228 230 232 234 237 239 241 244 247 249 251 253 255 258 260 262 264 266 268 270 272 275 277 278 280 282 284 286 287 289 290 292 293 295 296 298 300 302 303 303 304 306 307 309 310 312 313 314 315
186 184 182 179 177 176 178 181 183 184 185 187 189 192 195 199 202 205 209 212 215 218 221 224 226 228 231 234 236 238 240 242 244 247 250 252 254 256 258 260 262 264 265 267 270 273 275 277 279 280 282 284 286 288 289 291 292 294 295 297 299 300 302 303 304 305 306 308 310 311 313 313 314 314
Height
10682 10686 10689 10692 10695 10696 10695 10698 10702 10705 10709 10713 10715 10718 10721 10723 10725 10726 10728 10729 10730 10733 10734 10735 10736 10738 10738 10739 10739 10739 10740 10740 10741 10740 10740 10740 10740 10740 10739 10740 10740 10740 10740 10738 10737 10736 10735 10733 10732 10730 10729 10727 10726 10725 10723 10721 10719 10717 10714 10712 10710 10707 10704 10702 10699 10697 10695 10692 10690 10687 10684 10680 10677 10673
10673 10678 10681 10685 10688 10689 10690 10692 10694 10698 10703 10707 10710 10712 10714 10717 10719 10721 10723 10724 10726 10728 10730 10730 10733 10734 10734 10735 10735 10735 10736 10736 10736 10736 10736 10735 10735 10735 10735 10736 10736 10735 10734 10733 10733 10732 10731 10729 10728 10726 10725 10724 10722 10720 10718 10717 10714 10712 10710 10707 10705 10702 10700 10697 10695 10692 10690 10687 10684 10682 10678 10675 10672 10668
10665 10669 10672 10677 10681 10682 10683 10685 10687 10691 10696 10700 10704 10706 10707 10711 10714 10716 10718 10719 10721 10724 10724 10726 10728 10729 10730 10731 10731 10731 10732 10732 10732 10732 10732 10731 10731 10731 10731 10731 10731 10730 10729 10729 10728 10728 10726 10725 10724 10723 10721 10720 10718 10716 10714 10712 10710 10707 10705 10703 10700 10697 10695 10693 10690 10688 10685 10682 10679 10676 10673 10670 10666 10662
10656 10661 10664 10668 10672 10674 10677 10680 10681 10685 10690 10694 10697 10698 10700 10705 10708 10710 10712 10714 10716 10718 10719 10721 10723 10724 10726 10727 10727 10727 10728 10728 10728 10728 10728 10728 10728 10727 10727 10726 10726 10726 10725 10725 10724 10723 10722 10721 10720 10719 10717 10715 10714 10712 10710 10707 10705 10703 10701 10698 10696 10693 10690 10688 10686 10683 10680 10677 10674 10671 10668 10664 10661 10657
10648 10652 10655 10658 10663 10665 10669 10674 10675 10677 10682 10687 10689 10690 10694 10699 10701 10704 10706 10708 10710 10712 10713 10716 10717 10718 10722 10723 10723 10723 10724 10725 10725 10724 10724 10725 10724 10723 10722 10722 10722 10722 10721 10720 10720 10719 10718 10717 10716 10714 10713 10711 10709 10707 10705 10703 10701 10699 10696 10694 10691 10688 10685 10683 10681 10678 10675 10672 10669 10666 10662 10659 10655 10651
10639 10642 10645 10650 10653 10656 10661 10667 10669 10671 10675 10678 10680 10683 10688 10692 10694 10697 10699 10701 10704 10707 10709 10710 10711 10714 10717 10718 10718 10719 10720 10721 10720 10720 10720 10720 10719 10719 10719 10718 10718 10717 10717 10716 10715 10714 10713 10712 10711 10710 10708 10706 10705 10703 10701 10699 10697 10694 10692 10689 10687 10684 10681 10678 10676 10673 10670 10667 10664 10660 10657 10653 10650 10646
10629 10633 10637 10641 10643 10646 10653 10659 10661 10664 10667 10669 10672 10676 10681 10685 10687 10690 10692 10694 10697 10702 10703 10703 10706 10709 10712 10712 10713 10714 10716 10716 10716 10716 10716 10716 10715 10715 10715 10714 10714 10713 10712 10712 10711 10710 10709 10708 10707 10705 10703 10702 10700 10698 10696 10694 10692 10690 10687 10685 10682 10679 10676 10674 10671 10668 10665 10662 10658 10655 10651 10648 10644 10640
10618 10624 10629 10632 10634 10636 10643 10649 10653 10657 10659 10661 10666 10670 10674 10678 10680 10682 10685 10687 10691 10696 10697 10697 10701 10704 10705 10708 10709 10709 10710 10711 10711 10711 10711 10711 10711 10711 10710 10710 10709 10708 10708 10707 10707 10706 10704 10703 10702 10701 10699 10698 10696 10694 10692 10690 10688 10685 10683 10680 10677 10674 10672 10669 10666 10663 10659 10656 10653 10649 10646 10642 10638 10634
10607 10613 10618 10622 10624 10626 10633 10640 10645 10649 10651 10655 10660 10663 10666 10670 10673 10674 10678 10680 10684 10690 10691 10691 10696 10698 10700 10702 10703 10703 10705 10706 10706 10706 10706 10706 10706 10706 10706 10705 10704 10704 10704 10703 10702 10701 10700 10699 10698 10696 10695 10693 10691 10689 10687 10685 10683 10681 10678 10676 10673 10670 10667 10664 10661 10657 10654 10650 10647 10643 10640 10636 10632 10628
10595 10601 10606 10611 10613 10616 10624 10632 10636 10639 10641 10646 10653 10656 10658 10662 10666 10668 10672 10673 10676 10683 10686 10686 10689 10692 10694 10696 10697 10698 10700 10700 10700 10700 10700 10701 10701 10700 10701 10700 10700 10700 10699 10698 10697 10696 10696 10694 10693 10691 10690 10689 10687 10685 10682 10680 10678 10676 10673 10671 10668 10665 10662 10659 10655 10652 10648 10644 10641 10637 10634 10630 10626 10621
10582 10588 10594 10599 10603 10608 10615 10621 10624 10628 10632 10636 10644 10648 10649 10653 10658 10661 10663 10664 10669 10678 10680 10679 10682 10686 10688 10689 10691 10692 10694 10694 10694 10694 10694 10695 10695 10695 10696 10696 10695 10694 10693 10693 10692 10692 10691 10689 10688 10687 10686 10684 10682 10680 10677 10675 10673 10671 10668 10666 10663 10660 10657 10654 10650 10646 10642 10639 10635 10631 10628 10624 10619 10615
10570 10576 10582 10587 10592 10598 10605 10609 10613 10618 10622 10626 10633 10638 10640 10643 10649 10654 10656 10657 10664 10671 10672 10672 10676 10680 10681 10682 10684 10686 10687 10687 10687 10687 10688 10690 10691 10691 10691 10691 10690 10689 10688 10688 10688 10687 10686 10685 10684 10683 10681 10679 10677 10674 10671 10670 10668 10666 10663 10661 10659 10655 10652 10648 10645 10641 10637 10633 10629 10625 10621 10617 10613 10608
10559 10564 10570 10575 10581 10587 10594 10597 10602 10608 10612 10615 10622 10628 10631 10634 10640 10646 10649 10650 10655 10662 10665 10667 10670 10673 10674 10675 10677 10678 10679 10679 10680 10682 10684 10685 10685 10685 10685 10685 10684 10684 10684 10684 10683 10683 10681 10680 10679 10678 10676 10674 10672 10669 10666 10665 10664 10661 10659 10656 10653 10650 10647 10643 10639 10635 10631 10627 10623 10619 10615 10611 10606 10601
10547 10553 10558 10564 10569 10575 10581 10586 10591 10597 10601 10606 10612 10617 10621 10625 10631 10638 10641 10642 10647 10654 10658 10660 10663 10666 10667 10668 10669 10670 10671 10673 10676 10677 10678 10678 10678 10679 10680 10679 10679 10679 10679 10680 10679 10678 10676 10675 10675 10674 10671 10668 10666 10664 10661 10660 10658 10656 10654 10651 10648 10645 10642 10638 10634 10630 10625 10621 10617 10613 10608 10604 10599 10594
10534 10540 10546 10552 10557 10562 10569 10575 10581 10586 10592 10596 10601 10606 10611 10617 10623 10629 10633 10635 10641 10647 10650 10652 10655 10658 10660 10661 10662 10663 10665 10668 10670 10670 10671 10672 10671 10672 10674 10674 10674 10675 10675 10675 10675 10672 10671 10671 10670 10668 10666 10662 10659 10658 10656 10655 10653 10651 10648 10645 10642 10639 10636 10632 10628 10624 10619 10615 10610 10606 10601 10597 10592 10587
10520 10526 10533 10539 10545 10551 10558 10564 10569 10575 10581 10586 10591 10595 10600 10607 10614 10621 10624 10628 10633 10638 10641 10643 10647 10651 10652 10653 10655 10656 10659 10661 10662 10664 10665 10664 10665 10667 10669 10669 10669 10669 10670 10670 10668 10666 10664 10665 10665 10662 10659 10656 10654 10652 10651 10649 10648 10645 10642 10639 10636 10633 10630 10626 10622 10618 10613 10609 10604 10599 10595 10590 10585 10580
10507 10513 10520 10526 10533 10541 10547 10552 10557 10564 10570 10576 10581 10585 10589 10595 10604 10611 10615 10617 10622 10628 10632 10635 10639 10643 10645 10647 10649 10650 10653 10655 10655 10658 10658 10657 10660 10663 10663 10662 10662 10664 10666 10664 10662 10660 10658 10659 10660 10656 10652 10651 10649 10646 10645 10644 10642 10639 10636 10633 10630 10627 10624 10621 10617 10612 10608 10603 10598 10593 10588 10583 10579 10574
10493 10500 10507 10514 10521 10529 10535 10539 10546 10553 10559 10565 10570 10573 10578 10585 10594 10600 10604 10606 10611 10617 10624 10628 10632 10635 10637 10640 10642 10643 10648 10649 10648 10650 10651 10651 10655 10657 10656 10655 10656 10658 10660 10658 10656 10655 10652 10652 10653 10649 10646 10646 10643 10640 10639 10638 10635 10632 10629 10626 10623 10620 10618 10615 10611 10606 10602 10597 10591 10586 10581 10577 10572 10567
10479 10485 10493 10500 10508 10517 10523 10528 10535 10542 10548 10554 10559 10562 10568 10577 10584 10589 10594 10598 10602 10609 10618 10623 10625 10628 10630 10633 10635 10638 10642 10641 10639 10643 10646 10646 10648 10650 10649 10649 10651 10653 10653 10651 10650 10650 10647 10645 10646 10643 10640 10640 10637 10634 10633 10631 10628 10625 10623 10619 10617 10614 10611 10608 10605 10600 10596 10591 10586 10580 10575 10570 10566 10561
10464 10471 10479 10486 10495 10504 10511 10517 10524 10530 10536 10542 10548 10552 10558 10567 10574 10579 10585 10591 10595 10602 10610 10615 10617 10620 10622 10625 10628 10631 10632 10631 10633 10639 10641 10639 10641 10643 10642 10642 10644 10645 10645 10644 10644 10645 10641 10638 10639 10637 10634 10633 10631 10627 10626 10624 10621 10618 10616 10613 10610 10608 10605 10602 10599 10594 10589 10585 10580 10574 10569 10564 10559 10554
10450 10458 10465 10473 10482 10490 10498 10505 10511 10517 10523 10531 10537 10543 10550 10559 10566 10570 10576 10582 10587 10594 10602 10607 10609 10611 10614 10617 10621 10624 10625 10624 10628 10633 10633 10631 10633 10635 10635 10636 10637 10637 10637 10636 10637 10638 10635 10631 10631 10630 10628 10626 10624 10621 10619 10617 10614 10612 10609 10607 10604 10601 10599 10596 10592 10588 10583 10578 10573 10568 10563 10557 10552 10547
10438 10445 10452 10460 10469 10477 10484 10492 10498 10504 10511 10519 10527 10536 10544 10551 10557 10561 10567 10573 10580 10588 10595 10599 10600 10603 10608 10611 10614 10616 10618 10619 10623 10626 10625 10624 10624 10627 10629 10630 10629 10629 10629 10629 10629 10630 10627 10624 10624 10623 10621 10619 10617 10615 10613 10610 10607 10605 10602 10600 10597 10595 10592 10589 10585 10582 10577 10572 10566 10561 10556 10551 10545 10540
10427 10434 10441 10448 10456 10463 10471 10479 10486 10492 10501 10510 10519 10527 10535 10542 10548 10553 10559 10565 10572 10579 10586 10589 10592 10596 10601 10604 10605 10607 10611 10614 10616 10618 10617 10616 10618 10620 10621 10622 10623 10623 10622 10621 10622 10622 10619 10617 10617 10616 10614 10612 10610 10608 10607 10603 10600 10598 10596 10593 10590 10588 10585 10582 10579 10575 10571 10566 10560 10554 10549 10545 10540 10534
10418 10424 10430 10437 10444 10451 10459 10467 10474 10482 10491 10500 10509 10518 10527 10534 10539 10545 10550 10556 10563 10570 10575 10580 10585 10590 10593 10594 10596 10600 10605 10607 10609 10610 10611 10612 10613 10613 10613 10614 10615 10616 10615 10615 10616 10614 10612 10611 10610 10608 10607 10606 10603 10601 10599 10597 10594 10591 10589 10586 10584 10581 10578 10575 10572 10567 10563 10558 10552 10547 10542 10538 10533 10527
10409 10415 10421 10427 10433 10440 10447 10454 10462 10472 10481 10490 10499 10509 10518 10524 10529 10534 10541 10547 10554 10560 10566 10572 10578 10583 10585 10585 10589 10594 10598 10599 10602 10604 10606 10607 10607 10606 10606 10607 10608 10608 10609 10609 10608 10607 10605 10604 10603 10602 10600 10599 10597 10595 10592 10590 10587 10584 10582 10580 10577 10574 10571 10568 10565 10560 10556 10551 10544 10538 10533 10528 10524 10519
10402 10406 10411 10417 10422 10429 10435 10443 10452 10462 10471 10479 10490 10499 10507 10513 10519 10526 10532 10539 10545 10551 10558 10565 10570 10573 10575 10578 10583 10588 10590 10592 10595 10598 10600 10601 10601 10600 10600 10601 10601 10602 10603 10603 10601 10600 10599 10598 10597 10596 10594 10592 10590 10588 10586 10583 10580 10577 10575 10572 10569 10566 10564 10560 10557 10552 10548 10543 10537 10531 10525 10520 10515 10510
10392 10396 10401 10406 10412 10420 10427 10434 10443 10453 10462 10471 10482 10490 10497 10503 10510 10518 10525 10531 10537 10544 10551 10558 10562 10565 10568 10573 10579 10583 10584 10585 10588 10591 10594 10595 10594 10594 10595 10595 10595 10597 10598 10597 10594 10593 10593 10592 10590 10589 10588 10586 10584 10582 10580 10577 10573 10570 10569 10565 10562 10558 10555 10551 10548 10544 10539 10534 10529 10523 10517 10513 10508 10502
10383 10387 10392 10397 10404 10412 10419 10426 10436 10446 10455 10464 10473 10480 10486 10494 10503 10512 10518 10524 10531 10538 10544 10550 10554 10558 10562 10568 10573 10575 10575 10578 10581 10584 10587 10587 10587 10588 10589 10588 10589 10592 10592 10590 10588 10587 10587 10585 10584 10583 10581 10579 10577 10575 10573 10570 10567 10564 10562 10559 10555 10551 10547 10544 10540 10536 10531 10526 10522 10516 10510 10505 10501 10495
10375 10378 10382 10388 10397 10407 10414 10421 10429 10438 10447 10455 10463 10470 10477 10486 10496 10504 10511 10517 10524 10531 10537 10542 10548 10553 10558 10562 10564 10564 10567 10572 10576 10577 10580 10580 10581 10582 10581 10581 10584 10586 10585 10583 10582 10581 10580 10579 10578 10577 10575 10572 10570 10568 10566 10563 10561 10558 10556 10553 10550 10545 10540 10536 10532 10528 10524 10519 10515 10510 10504 10498 10494 10488
10365 10370 10376 10383 10392 10401 10408 10415 10422 10430 10438 10446 10454 10461 10469 10479 10489 10496 10503 10511 10518 10524 10531 10536 10543 10548 10550 10551 10552 10555 10561 10567 10569 10570 10573 10574 10574 10574 10573 10576 10579 10579 10578 10577 10576 10575 10574 10573 10571 10570 10568 10565 10563 10560 10559 10557 10555 10552 10549 10546 10543 10539 10534 10530 10525 10520 10516 10511 10507 10503 10498 10492 10486 10480
10358 10365 10372 10380 10386 10394 10401 10407 10413 10421 10430 10438 10446 10455 10463 10472 10481 10489 10496 10504 10511 10518 10524 10530 10536 10539 10539 10540 10544 10549 10555 10559 10561 10564 10567 10567 10567 10567 10568 10571 10572 10572 10571 10571 10569 10568 10567 10566 10564 10563 10560 10558 10556 10553 10551 10549 10548 10546 10542 10538 10535 10532 10528 10523 10518 10513 10508 10503 10499 10495 10490 10484 10477 10470
10353 10361 10368 10374 10380 10388 10395 10400 10407 10416 10424 10432 10440 10448 10455 10464 10474 10482 10490 10498 10505 10513 10518 10523 10527 10528 10528 10532 10539 10544 10547 10551 10555 10558 10559 10559 10560 10562 10563 10565 10565 10565 10564 10564 10563 10562 10561 10559 10558 10556 10553 10551 10549 10546 10544 10542 10540 10538 10535 10531 10527 10523 10519 10515 10510 10505 10499 10494 10490 10485 10481 10474 10467 10459
10350 10357 10362 10368 10375 10382 10389 10395 10402 10410 10417 10425 10432 10440 10448 10457 10467 10475 10483 10492 10499 10506 10511 10515 10517 10518 10521 10527 10534 10538 10541 10546 10549 10551 10552 10552 10554 10557 10558 10559 10558 10558 10558 10557 10556 10556 10554 10552 10551 10549 10546 10544 10542 10539 10537 10535 10532 10529 10527 10523 10519 10515 10511 10507 10502 10496 10490 10485 10479 10474 10469 10463 10456 10449
10347 10352 10357 10363 10370 10377 10383 10390 10397 10403 10410 10417 10425 10433 10442 10451 10459 10468 10476 10484 10491 10497 10503 10507 10509 10511 10516 10523 10529 10534 10537 10540 10541 10542 10544 10546 10549 10551 10552 10551 10551 10551 10551 10551 10550 10549 10547 10545 10544 10542 10540 10538 10535 10532 10530 10527 10524 10521 10518 10515 10512 10508 10504 10500 10494 10489 10483 10477 10470 10464 10458 10452 10446 10439
10342 10348 10354 10360 10367 10373 10379 10385 10390 10397 10403 10410 10418 10426 10435 10444 10453 10462 10470 10477 10484 10490 10495 10499 10501 10506 10513 10519 10525 10529 10531 10532 10533 10535 10537 10541 10543 10544 10544 10544 10545 10545 10545 10544 10543 10542 10540 10538 10537 10536 10534 10531 10528 10525 10522 10519 10516 10513 10510 10506 10503 10500 10497 10492 10486 10481 10476 10470 10463 10456 10449 10442 10437 10430
10339 10345 10351 10357 10363 10369 10374 10379 10385 10391 10398 10405 10412 10421 10429 10438 10447 10455 10463 10471 10477 10482 10486 10490 10496 10502 10510 10515 10519 10522 10523 10524 10526 10529 10532 10535 10537 10536 10536 10537 10538 10538 10538 10537 10536 10534 10532 10531 10530 10529 10528 10525 10521 10518 10515 10511 10509 10506 10502 10498 10495 10491 10487 10483 10477 10472 10466 10461 10455 10449 10442 10435 10428 10422
10334 10341 10347 10353 10359 10364 10370 10376 10382 10388 10394 10401 10408 10416 10424 10432 10440 10448 10456 10463 10468 10473 10479 10486 10493 10500 10506 10510 10512 10513 10515 10517 10520 10523 10526 10528 10528 10528 10530 10531 10531 10530 10531 10530 10528 10526 10524 10523 10523 10523 10521 10518 10515 10511 10507 10504 10501 10498 10495 10491 10487 10483 10479 10474 10469 10463 10458 10452 10447 10441 10434 10427 10420 10414
10330 10337 10344 10350 10356 10362 10367 10373 10379 10385 10392 10399 10406 10413 10420 10427 10433 10441 10449 10456 10463 10470 10478 10485 10491 10496 10500 10503 10505 10506 10508 10512 10515 10518 10519 10520 10520 10522 10523 10523 10523 10523 10524 10522 10520 10518 10516 10516 10516 10515 10513 10511 10509 10505 10501 10496 10493 10490 10487 10484 10480 10476 10472 10467 10461 10456 10450 10444 10439 10433 10426 10420 10413 10406
10328 10335 10342 10348 10353 10359 10365 10371 10377 10383 10389 10396 10404 10411 10418 10424 10430 10439 10447 10455 10462 10469 10476 10483 10488 10491 10494 10496 10497 10499 10503 10507 10509 10510 10511 10512 10514 10515 10516 10515 10516 10516 10516 10514 10512 10510 10509 10510 10509 10508 10506 10504 10502 10499 10495 10491 10487 10483 10480 10476 10472 10468 10464 10459 10454 10449 10442 10436 10430 10423 10416 10410 10404 10396
10328 10334 10341 10347 10352 10357 10363 10369 10375 10381 10387 10394 10401 10408 10415 10423 10432 10440 10447 10454 10461 10467 10473 10478 10482 10484 10486 10488 10491 10494 10497 10500 10501 10502 10504 10506 10508 10508 10508 10508 10509 10509 10508 10506 10504 10503 10503 10502 10501 10500 10498 10496 10494 10492 10489 10487 10483 10478 10473 10468 10464 10460 10456 10451 10446 10440 10434 10427 10421 10414 10407 10400 10394 10386
10328 10335 10341 10346 10351 10357 10362 10368 10374 10381 10387 10394 10401 10409 10416 10424 10431 10438 10445 10452 10458 10464 10468 10471 10474 10476 10479 10482 10486 10489 10490 10491 10493 10496 10499 10501 10501 10500 10500 10501 10502 10502 10500 10498 10496 10495 10495 10494 10493 10492 10490 10488 10486 10485 10482 10480 10477 10473 10468 10462 10457 10452 10447 10442 10437 10432 10426 10420 10413 10407 10400 10393 10386 10379
10329 10335 10341 10346 10351 10356 10362 10369 10376 10383 10391 10397 10404 10411 10418 10424 10430 10437 10444 10450 10455 10459 10462 10465 10468 10471 10475 10478 10480 10481 10482 10484 10488 10492 10493 10493 10493 10493 10494 10495 10495 10495 10493 10491 10489 10488 10487 10487 10485 10484 10482 10480 10479 10477 10475 10472 10469 10466 10462 10457 10452 10447 10441 10436 10430 10424 10419 10414 10408 10401 10394 10387 10379 10372
10329 10335 10341 10346 10352 10358 10364 10371 10377 10384 10391 10397 10404 10411 10418 10424 10431 10437 10443 10448 10451 10455 10457 10460 10463 10466 10469 10471 10472 10473 10475 10479 10484 10486 10486 10486 10486 10486 10487 10488 10488 10487 10485 10483 10481 10480 10480 10479 10478 10476 10474 10472 10470 10468 10466 10463 10460 10457 10454 10450 10446 10442 10437 10431 10425 10418 10412 10407 10402 10396 10389 10382 10374 10366
10328 10333 10339 10346 10352 10359 10365 10372 10378 10383 10389 10396 10403 10409 10415 10422 10429 10435 10439 10443 10446 10449 10451 10454 10456 10459 10461 10463 10465 10467 10470 10474 10478 10478 10478 10479 10479 10480 10481 10481 10481 10480 10478 10475 10473 10473 10472 10471 10470 10468 10466 10464 10461 10459 10456 10454 10451 10448 10445 10441 10437 10434 10429 10424 10419 10413 10406 10399 10393 10387 10380 10373 10366 10359
10330 10335 10340 10345 10352 10358 10365 10371 10377 10383 10389 10395 10402 10408 10414 10421 10427 10431 10435 10438 10440 10442 10444 10447 10450 10452 10455 10458 10459 10461 10465 10468 10471 10471 10472 10473 10473 10474 10474 10474 10473 10472 10470 10468 10466 10466 10465 10464 10462 10460 10458 10456 10453 10450 10447 10444 10441 10437 10434 10431 10428 10424 10419 10414 10409 10404 10399 10392 10385 10377 10371 10364 10357 10350